Cloud_Cover
100 19 1 0 8 2 1 3 2 61 96 37 5 4 2 5 5 36 76 88 41 100 19 5 5 11 5 85 100 99 96 100 100 100 100 100 100 75 98 26 62 6 3 4 0 56 6 62 100
99 5 5 4 19 2 1 94 100 100 88 100 99 5 5 14 4 48 27 87 83 100 100 80 38 67 54 50 5 96 100 77 100 100 100 100 100 100 70 100 56 33 25 3 9 13 28 18 76
86 7 5 2 0 0 4 21 39 100 44 82 100 96 55 100 79 32 100 90 100 78 93 23 5 40 100 5 5 5 5 10 48 6 100 99 100 100 100 91 39 79 8 0 4 14 5 4 4
100 78 0 0 0 4 100 36 99 100 10 5 58 100 100 100 100 100 100 100 70 90 33 53 6 11 5 5 4 5 65 39 5 5 5 10 5 8 3 28 100 100 100 95 0 3 4 5 0
100 68 96 10 0 4 58 62 80 67 72 1 0 93 100 88 8 98 100 100 100 86 26 5 22 93 96 99 74 22 4 90 92 52 4 5 23 73 16 5 25 22 68 89 7 5 5 30 4
100 25 4 0 2 46 98 25 30 7 90 58 1 85 67 99 93 6 21 85 92 100 100 96 76 9 4 7 54 97 95 58 72 91 100 44 41 92 100 100 100 59 86 12 47 5 5 36 50
90 5 11 4 5 93 99 11 4 0 39 98 0 51 18 35 69 97 46 13 11 41 73 96 74 39 100 100 94 69 14 5 4 49 100 100 100 100 100 100 100 100 100 96 93 18 5 67 98
100 100 37 5 0 5 68 4 5 1 78 94 5 5 3 0 0 17 82 72 39 5 0 0 0 0 0 4 3 0 5 26 12 4 40 100 100 100 100 100 100 100 100 100 100 100 100 84 100
67 100 85 15 5 6 42 2 4 0 0 3 0 0 1 5 0 0 1 5 5 8 4 5 5 2 0 0 0 0 0 0 0 0 0 16 100 100 100 100 100 100 100 100 100 100 100 100 100
100 100 100 100 17 5 3 0 1 2 0 0 0 0 0 0 0 0 0 0 0 0 0 0 0 0 0 0 0 0 0 0 0 0 0 0 7 100 100 100 100 100 100 100 100 100 100 100 100
100 100 100 100 6 5 5 5 5 5 4 0 0 0 0 0 0 0 0 0 0 0 0 0 0 0 0 0 0 0 0 0 0 0 0 0 0 0 13 100 100 100 100 100 100 100 100 100 100
100 100 100 100 100 22 3 0 5 1 0 0 0 0 0 0 0 0 0 0 0 0 0 0 0 0 0 0 0 0 0 0 0 0 0 0 0 0 0 0 61 100 100 100 100 100 100 100 100
100 100 100 100 100 58 0 1 5 4 4 0 0 0 0 0 0 0 0 0 0 0 0 0 0 0 0 0 0 0 0 0 0 0 0 0 0 0 0 0 0 0 54 100 100 100 100 100 100
100 100 100 100 88 5 2 5 5 4 5 0 0 0 0 0 0 0 0 0 0 0 0 0 0 0 0 0 0 0 0 0 0 0 0 0 0 0 0 0 0 0 0 0 83 100 100 100 100
100 100 100 100 100 5 5 5 5 6 5 5 0 0 0 0 0 0 0 0 0 0 0 0 0 0 0 0 0 0 0 0 0 0 0 0 0 0 0 0 0 0 0 0 0 5 100 100 100
100 100 100 100 69 5 5 28 5 5 5 5 5 2 5 5 5 0 0 2 1 0 0 0 0 0 0 0 0 0 0 0 0 0 0 0 0 0 0 0 0 0 0 0 0 0 0 10 99
100 100 100 100 30 5 5 8 5 5 5 5 5 5 4 5 5 5 4 3 5 5 0 0 0 0 0 0 0 0 0 0 0 0 0 0 0 0 0 0 0 0 0 0 0 0 0 0 0
100 100 100 100 89 5 5 6 5 5 5 5 5 4 5 1 3 5 5 5 5 0 0 0 0 0 0 0 0 0 0 0 0 0 0 0 0 0 0 0 0 0 0 0 0 0 0 0 0
100 100 100 100 100 6 5 10 5 5 5 5 5 5 5 0 0 2 5 5 5 5 0 0 0 0 0 0 0 0 0 0 0 0 0 0 0 0 0 0 0 0 0 0 0 0 0 0 0
100 100 100 100 100 5 5 61 19 5 33 16 5 4 0 0 0 0 5 5 5 5 5 5 5 5 0 0 0 0 0 0 0 0 0 0 0 3 5 5 5 2 1 0 0 0 0 0 3
100 100 100 100 100 42 5 16 5 5 5 8 47 5 5 4 2 3 3 5 5 4 0 5 5 5 0 0 0 0 0 0 0 0 0 0 0 0 5 5 5 5 5 5 5 6 0 4 0
100 100 100 100 97 78 62 22 20 24 5 5 8 5 5 5 5 5 5 5 5 5 5 5 0 0 0 0 0 0 0 0 0 0 1 3 5 5 5 18 50 19 11 9 5 6 5 6 10
100 100 100 100 98 100 100 22 100 96 41 5 5 5 5 5 5 5 5 35 57 32 5 1 0 0 0 0 0 0 0 0 2 5 5 5 5 5 5 52 100 100 100 100 100 100 96 98 56
100 100 100 100 100 91 74 6 100 86 11 5 5 5 6 5 5 5 5 5 5 5 5 4 5 5 0 0 0 0 0 5 5 5 5 48 94 100 100 100 100 100 100 100 100 100 100 100 100
100 100 100 100 100 35 73 70 100 36 50 5 5 5 5 42 5 5 5 5 5 6 79 16 2 0 0 0 0 0 4 5 5 5 5 76 82 100 97 100 100 100 100 100 100 100 100 100 100
100 100 100 100 97 100 91 11 36 20 6 5 5 5 5 5 5 5 5 5 16 46 7 4 0 0 0 0 0 2 5 5 5 5 12 100 100 100 100 100 100 100 100 100 100 100 100 100 100
100 100 100 100 100 100 78 97 100 94 5 5 5 5 5 5 44 5 11 35 5 5 5 0 0 0 0 0 5 5 5 5 5 5 5 29 100 100 100 100 100 100 100 100 100 100 100 100 100
100 100 100 100 100 89 63 98 100 98 41 6 5 5 5 5 5 5 5 6 5 5 1 0 0 0 0 5 5 5 5 5 5 5 5 28 98 100 100 100 100 100 100 100 100 100 100 100 100
100 100 100 100 87 88 47 100 100 99 13 5 5 8 6 5 5 5 5 5 5 1 0 0 0 0 4 5 5 5 5 5 5 5 51 100 100 100 100 100 100 100 100 100 100 100 100 100 100
100 100 100 100 100 100 100 100 100 100 86 6 5 5 5 44 5 5 5 5 5 1 0 0 0 3 5 5 5 5 5 5 5 5 64 100 100 100 100 100 100 100 100 100 100 100 100 100 100